| time (UTC) | temp F | wind direction | speed knots | gust knots | rain 1hr in | rain 24hr in | rain mn in | humidity % | barometer mb |
| 20260505203630 | 62 | 90 | 0.0 | 0.0 | 0.00 | 0.00 | 0.00 | 4 | 1220.1 |
| 20260505203127 | 63 | 90 | 0.0 | 0.0 | 0.00 | 0.00 | 0.00 | 4 | 1219.9 |
| 20260505202624 | 63 | 90 | 0.0 | 0.0 | 0.00 | 0.00 | 0.00 | 4 | 1217.8 |
| 20260505202122 | 64 | 90 | 0.0 | 0.0 | 0.00 | 0.00 | 0.00 | 4 | 1217.2 |
| 20260505201619 | 64 | 90 | 0.0 | 0.0 | 0.00 | 0.00 | 0.00 | 4 | 1217.6 |
| 20260505200611 | 64 | 90 | 0.0 | 0.0 | 0.00 | 0.00 | 0.00 | 4 | 1218.3 |
| 20260505200108 | 64 | 90 | 2.6 | 2.6 | 0.00 | 0.00 | 0.00 | 4 | 1218.1 |
| 20260505195605 | 64 | 90 | 2.6 | 3.5 | 0.00 | 0.00 | 0.00 | 4 | 1217.8 |
| 20260505195102 | 64 | 90 | 2.6 | 3.5 | 0.00 | 0.00 | 0.00 | 4 | 1217.6 |
| 20260505194600 | 65 | 90 | 2.6 | 4.3 | 0.00 | 0.00 | 0.00 | 4 | 1217.2 |
| 20260505193046 | 65 | 90 | 3.5 | 3.5 | 0.00 | 0.00 | 0.00 | 4 | 1217.1 |
| 20260505192543 | 65 | 90 | 0.0 | 2.6 | 0.00 | 0.00 | 0.00 | 4 | 1217.8 |
| 20260505192040 | 66 | 90 | 3.5 | 5.2 | 0.00 | 0.00 | 0.00 | 4 | 1217.6 |
| 20260505191538 | 66 | 90 | 4.3 | 8.7 | 0.00 | 0.00 | 0.00 | 5 | 1219.0 |
| 20260505191035 | 66 | 90 | 2.6 | 7.8 | 0.00 | 0.00 | 0.00 | 4 | 1217.4 |
| 20260505190532 | 66 | 90 | 3.5 | 7.0 | 0.00 | 0.00 | 0.00 | 4 | 1217.4 |
| 20260505190029 | 66 | 90 | 2.6 | 6.1 | 0.00 | 0.00 | 0.00 | 4 | 1216.9 |
| 20260505185526 | 66 | 90 | 3.5 | 6.1 | 0.00 | 0.00 | 0.00 | 4 | 1217.9 |
| 20260505185024 | 67 | 90 | 3.5 | 7.0 | 0.00 | 0.00 | 0.00 | 4 | 1215.4 |
| 20260505184521 | 67 | 90 | 3.5 | 5.2 | 0.00 | 0.00 | 0.00 | 4 | 1216.2 |
| 20260505184018 | 67 | 90 | 4.3 | 10.4 | 0.00 | 0.00 | 0.00 | 4 | 1216.4 |
| 20260505183515 | 67 | 90 | 3.5 | 6.1 | 0.00 | 0.00 | 0.00 | 4 | 1217.2 |
| 20260505183012 | 68 | 90 | 4.3 | 7.8 | 0.00 | 0.00 | 0.00 | 4 | 1215.9 |
| 20260505182510 | 68 | 90 | 5.2 | 11.3 | 0.00 | 0.00 | 0.00 | 4 | 1216.5 |
| 20260505182007 | 68 | 90 | 4.3 | 7.8 | 0.00 | 0.00 | 0.00 | 4 | 1216.9 |
| 20260505181504 | 69 | 90 | 4.3 | 9.6 | 0.00 | 0.00 | 0.00 | 4 | 1214.2 |
| 20260505181001 | 69 | 90 | 5.2 | 9.6 | 0.00 | 0.00 | 0.00 | 4 | 1215.5 |
| 20260505180459 | 69 | 90 | 4.3 | 8.7 | 0.00 | 0.00 | 0.00 | 4 | 1214.6 |
| 20260505175956 | 69 | 90 | 3.5 | 6.1 | 0.00 | 0.00 | 0.00 | 4 | 1213.1 |
| 20260505174948 | 70 | 90 | 4.3 | 9.6 | 0.00 | 0.00 | 0.00 | 4 | 1212.8 |
| 20260505174445 | 71 | 90 | 6.1 | 9.6 | 0.00 | 0.00 | 0.00 | 4 | 1212.8 |
| 20260505173942 | 71 | 90 | 6.1 | 9.6 | 0.00 | 0.00 | 0.00 | 4 | 1211.9 |
| 20260505173439 | 71 | 90 | 6.1 | 11.3 | 0.00 | 0.00 | 0.00 | 4 | 1211.2 |
| 20260505172937 | 72 | 90 | 6.1 | 10.4 | 0.00 | 0.00 | 0.00 | 4 | 1210.9 |
| 20260505172434 | 72 | 90 | 7.0 | 11.3 | 0.00 | 0.00 | 0.00 | 4 | 1211.9 |
| 20260505171931 | 73 | 90 | 7.0 | 9.6 | 0.00 | 0.00 | 0.00 | 4 | 1212.1 |
| 20260505171428 | 73 | 90 | 7.0 | 13.0 | 0.00 | 0.00 | 0.00 | 4 | 1209.1 |
| 20260505170925 | 73 | 90 | 7.8 | 13.9 | 0.00 | 0.00 | 0.00 | 4 | 1210.0 |
| 20260505170423 | 74 | 90 | 7.8 | 13.0 | 0.00 | 0.00 | 0.00 | 4 | 1209.1 |
| 20260505165920 | 74 | 90 | 6.1 | 11.3 | 0.00 | 0.00 | 0.00 | 3 | 1207.3 |
| 20260505165417 | 75 | 90 | 7.0 | 12.2 | 0.00 | 0.00 | 0.00 | 4 | 1209.0 |
| 20260505164914 | 75 | 90 | 5.2 | 10.4 | 0.00 | 0.00 | 0.00 | 3 | 1207.3 |
| 20260505164412 | 75 | 90 | 5.2 | 13.0 | 0.00 | 0.00 | 0.00 | 3 | 1206.9 |
| 20260505163909 | 75 | 90 | 5.2 | 9.6 | 0.00 | 0.00 | 0.00 | 3 | 1206.6 |
| 20260505162903 | 75 | 90 | 7.0 | 12.2 | 0.00 | 0.00 | 0.00 | 3 | 1208.2 |
| 20260505162400 | 75 | 90 | 5.2 | 10.4 | 0.00 | 0.00 | 0.00 | 4 | 1209.3 |
| 20260505161352 | 75 | 90 | 4.3 | 7.0 | 0.00 | 0.00 | 0.00 | 3 | 1207.0 |
| 20260505160850 | 76 | 90 | 5.2 | 12.2 | 0.00 | 0.00 | 0.00 | 3 | 1205.9 |
| 20260505160347 | 77 | 90 | 6.1 | 10.4 | 0.00 | 0.00 | 0.00 | 3 | 1206.5 |
| 20260505152825 | 77 | 90 | 12.2 | 22.6 | 0.00 | 0.00 | 0.00 | 3 | 1207.2 |
| 20260505152322 | 77 | 90 | 9.6 | 20.9 | 0.00 | 0.00 | 0.00 | 3 | 1206.1 |
| 20260505151819 | 77 | 90 | 10.4 | 20.0 | 0.00 | 0.00 | 0.00 | 3 | 1206.5 |
| 20260505151316 | 78 | 90 | 9.6 | 14.8 | 0.00 | 0.00 | 0.00 | 3 | 1205.1 |
| 20260505150814 | 78 | 67 | 12.2 | 23.5 | 0.00 | 0.00 | 0.00 | 3 | 1207.2 |
| 20260505150310 | 79 | 90 | 11.3 | 20.0 | 0.00 | 0.00 | 0.00 | 3 | 1206.6 |
| 20260505140226 | 82 | 90 | 8.7 | 13.9 | 0.00 | 0.00 | 0.00 | 2 | 1200.9 |
| 20260505130150 | 81 | 67 | 8.7 | 16.5 | 0.00 | 0.00 | 0.00 | 2 | 1203.8 |
| 20260505124641 | 82 | 45 | 7.0 | 15.6 | 0.00 | 0.00 | 0.00 | 2 | 1203.8 |
| 20260505124139 | 81 | 67 | 8.7 | 13.9 | 0.00 | 0.00 | 0.00 | 2 | 1204.5 |
| 20260505123636 | 81 | 45 | 7.8 | 16.5 | 0.00 | 0.00 | 0.00 | 2 | 1204.8 |
| 20260505123133 | 81 | 67 | 9.6 | 19.1 | 0.00 | 0.00 | 0.00 | 2 | 1205.6 |
| 20260505122630 | 80 | 90 | 8.7 | 16.5 | 0.00 | 0.00 | 0.00 | 2 | 1205.9 |
| 20260505122127 | 81 | 90 | 7.8 | 15.6 | 0.00 | 0.00 | 0.00 | 2 | 1204.5 |
| 20260505121625 | 82 | 67 | 6.1 | 11.3 | 0.00 | 0.00 | 0.00 | 2 | 1204.9 |
| 20260505121122 | 80 | 45 | 7.0 | 13.0 | 0.00 | 0.00 | 0.00 | 3 | 1206.5 |
| 20260505120619 | 81 | 67 | 6.1 | 13.9 | 0.00 | 0.00 | 0.00 | 3 | 1205.9 |
| 20260505120116 | 80 | 67 | 7.0 | 13.0 | 0.00 | 0.00 | 0.00 | 3 | 1206.5 |
| 20260505115614 | 80 | 45 | 6.1 | 10.4 | 0.00 | 0.00 | 0.00 | 3 | 1207.3 |
| 20260505115111 | 79 | 67 | 5.2 | 11.3 | 0.00 | 0.00 | 0.00 | 3 | 1207.5 |
| 20260505114608 | 79 | 67 | 5.2 | 9.6 | 0.00 | 0.00 | 0.00 | 3 | 1206.6 |
| 20260505114105 | 78 | 67 | 7.0 | 11.3 | 0.00 | 0.00 | 0.00 | 3 | 1208.9 |
| 20260505113603 | 78 | 67 | 7.0 | 11.3 | 0.00 | 0.00 | 0.00 | 3 | 1208.4 |
| 20260505113100 | 78 | 67 | 6.1 | 14.8 | 0.00 | 0.00 | 0.00 | 3 | 1209.7 |
| 20260505112557 | 78 | 67 | 7.0 | 11.3 | 0.00 | 0.00 | 0.00 | 3 | 1210.3 |
| 20260505112054 | 77 | 67 | 7.8 | 14.8 | 0.00 | 0.00 | 0.00 | 3 | 1211.0 |
| 20260505111046 | 77 | 67 | 5.2 | 8.7 | 0.00 | 0.00 | 0.00 | 3 | 1210.9 |
| 20260505110543 | 76 | 67 | 5.2 | 8.7 | 0.00 | 0.00 | 0.00 | 4 | 1211.5 |
| 20260505101510 | 74 | 90 | 3.5 | 7.8 | 0.00 | 0.00 | 0.00 | 4 | 1214.1 |
| 20260505101007 | 74 | 90 | 4.3 | 8.7 | 0.00 | 0.00 | 0.00 | 4 | 1215.5 |
| 20260505100504 | 74 | 90 | 2.6 | 5.2 | 0.00 | 0.00 | 0.00 | 4 | 1215.4 |
| 20260505100002 | 73 | 90 | 3.5 | 6.1 | 0.00 | 0.00 | 0.00 | 4 | 1216.2 |
| 20260505094954 | 73 | 90 | 4.3 | 7.0 | 0.00 | 0.00 | 0.00 | 4 | 1216.8 |
| 20260505094451 | 73 | 90 | 4.3 | 7.8 | 0.00 | 0.00 | 0.00 | 4 | 1215.7 |
| 20260505093948 | 74 | 90 | 3.5 | 7.8 | 0.00 | 0.00 | 0.00 | 4 | 1214.2 |
| 20260505093445 | 73 | 90 | 5.2 | 12.2 | 0.00 | 0.00 | 0.00 | 4 | 1215.5 |
| 20260505092943 | 74 | 90 | 4.3 | 7.8 | 0.00 | 0.00 | 0.00 | 4 | 1215.6 |
| 20260505092440 | 73 | 90 | 5.2 | 10.4 | 0.00 | 0.00 | 0.00 | 4 | 1215.1 |
| 20260505091937 | 74 | 90 | 4.3 | 8.7 | 0.00 | 0.00 | 0.00 | 4 | 1215.8 |
| 20260505091434 | 75 | 90 | 2.6 | 7.0 | 0.00 | 0.00 | 0.00 | 4 | 1217.0 |
| 20260505090931 | 74 | 90 | 3.5 | 7.0 | 0.00 | 0.00 | 0.00 | 3 | 1214.5 |
| 20260505090429 | 73 | 90 | 4.3 | 7.8 | 0.00 | 0.00 | 0.00 | 4 | 1215.1 |
| 20260505085926 | 72 | 90 | 3.5 | 5.2 | 0.00 | 0.00 | 0.00 | 4 | 1214.3 |
| 20260505085423 | 72 | 90 | 3.5 | 5.2 | 0.00 | 0.00 | 0.00 | 4 | 1217.2 |
| 20260505084920 | 73 | 90 | 3.5 | 6.1 | 0.00 | 0.00 | 0.00 | 4 | 1214.2 |
| 20260505084418 | 71 | 90 | 3.5 | 6.1 | 0.00 | 0.00 | 0.00 | 4 | 1217.4 |
| 20260505083915 | 68 | 90 | 2.6 | 5.2 | 0.00 | 0.00 | 0.00 | 5 | 1222.6 |
| 20260505083412 | 67 | 90 | 3.5 | 6.1 | 0.00 | 0.00 | 0.00 | 5 | 1221.7 |
| 20260505082909 | 67 | 90 | 2.6 | 5.2 | 0.00 | 0.00 | 0.00 | 5 | 1223.8 |
| 20260505082406 | 66 | 90 | 3.5 | 5.2 | 0.00 | 0.00 | 0.00 | 5 | 1222.0 |
| 20260505081904 | 67 | 90 | 3.5 | 5.2 | 0.00 | 0.00 | 0.00 | 4 | 1220.1 |
| 20260505081401 | 67 | 90 | 3.5 | 7.0 | 0.00 | 0.00 | 0.00 | 5 | 1222.6 |
| 20260505080858 | 66 | 90 | 3.5 | 6.1 | 0.00 | 0.00 | 0.00 | 4 | 1221.9 |
| 20260505080356 | 66 | 90 | 3.5 | 4.3 | 0.00 | 0.00 | 0.00 | 5 | 1222.1 |
| 20260505075853 | 65 | 90 | 0.0 | 0.0 | 0.00 | 0.00 | 0.00 | 5 | 1226.0 |
| 20260505075350 | 65 | 90 | 0.0 | 0.0 | 0.00 | 0.00 | 0.00 | 5 | 1226.6 |
| 20260505074847 | 65 | 90 | 2.6 | 4.3 | 0.00 | 0.00 | 0.00 | 5 | 1227.3 |
| 20260505074344 | 64 | 90 | 3.5 | 0.0 | 0.00 | 0.00 | 0.00 | 5 | 1224.7 |
| 20260505073842 | 63 | 90 | 0.0 | 0.0 | 0.00 | 0.00 | 0.00 | 5 | 1228.2 |
| 20260505073339 | 63 | 90 | 0.0 | 0.0 | 0.00 | 0.00 | 0.00 | 5 | 1229.7 |
| 20260505072836 | 62 | 90 | 0.0 | 0.0 | 0.00 | 0.00 | 0.00 | 5 | 1227.7 |
| 20260505072334 | 62 | 90 | 0.0 | 0.0 | 0.00 | 0.00 | 0.00 | 4 | 1221.6 |
| 20260505071831 | 62 | 90 | 2.6 | 2.6 | 0.00 | 0.00 | 0.00 | 4 | 1222.2 |
| 20260505071328 | 61 | 90 | 0.0 | 0.0 | 0.00 | 0.00 | 0.00 | 4 | 1226.6 |
| 20260505070825 | 61 | 90 | 0.0 | 0.0 | 0.00 | 0.00 | 0.00 | 4 | 1224.2 |
| 20260505070323 | 61 | 90 | 0.0 | 0.0 | 0.00 | 0.00 | 0.00 | 5 | 1228.7 |
| 20260505065314 | 60 | 90 | 0.0 | 0.0 | 0.00 | 0.00 | 0.00 | 4 | 1225.6 |
| 20260505064812 | 60 | 90 | 0.0 | 0.0 | 0.00 | 0.00 | 0.00 | 4 | 1223.2 |
| 20260505064309 | 61 | 90 | 0.0 | 0.0 | 0.00 | 0.00 | 0.00 | 4 | 1223.5 |
| 20260505063301 | 60 | 90 | 0.0 | 0.0 | 0.00 | 0.00 | 0.00 | 5 | 1228.2 |
| 20260505062758 | 59 | 90 | 0.0 | 0.0 | 0.00 | 0.00 | 0.00 | 5 | 1227.2 |
| 20260505062255 | 58 | 90 | 0.0 | 0.0 | 0.00 | 0.00 | 0.00 | 5 | 1230.3 |
| 20260505061751 | 57 | 90 | 0.0 | 0.0 | 0.00 | 0.00 | 0.00 | 6 | 1233.3 |
| 20260505061249 | 57 | 90 | 0.0 | 0.0 | 0.00 | 0.00 | 0.00 | 6 | 1233.6 |
| 20260505060746 | 57 | 90 | 0.0 | 0.0 | 0.00 | 0.00 | 0.00 | 6 | 1232.8 |
| 20260505060243 | 56 | 90 | 0.0 | 0.0 | 0.00 | 0.00 | 0.00 | 6 | 1232.7 |
| 20260505055740 | 57 | 90 | 0.0 | 0.0 | 0.00 | 0.00 | 0.00 | 6 | 1233.8 |
| 20260505055237 | 57 | 90 | 0.0 | 0.0 | 0.00 | 0.00 | 0.00 | 6 | 1232.7 |
| 20260505054735 | 57 | 90 | 0.0 | 0.0 | 0.00 | 0.00 | 0.00 | 5 | 1229.9 |
| 20260505054232 | 57 | 90 | 0.0 | 0.0 | 0.00 | 0.00 | 0.00 | 5 | 1230.9 |
| 20260505053729 | 56 | 90 | 0.0 | 0.0 | 0.00 | 0.00 | 0.00 | 5 | 1230.6 |
| 20260505053226 | 55 | 90 | 0.0 | 0.0 | 0.00 | 0.00 | 0.00 | 6 | 1234.7 |
| 20260505051713 | 55 | 90 | 0.0 | 0.0 | 0.00 | 0.00 | 0.00 | 6 | 1237.0 |
| 20260505051210 | 55 | 90 | 0.0 | 0.0 | 0.00 | 0.00 | 0.00 | 6 | 1233.9 |
| 20260505050707 | 55 | 90 | 0.0 | 0.0 | 0.00 | 0.00 | 0.00 | 6 | 1235.3 |
| 20260505050204 | 53 | 90 | 0.0 | 0.0 | 0.00 | 0.00 | 0.00 | 6 | 1236.3 |
| 20260505041640 | 47 | 90 | 0.0 | 0.0 | 0.00 | 0.00 | 0.00 | 6 | 1241.4 |
| 20260505041137 | 48 | 90 | 0.0 | 0.0 | 0.00 | 0.00 | 0.00 | 6 | 1241.0 |
| 20260505040634 | 48 | 90 | 0.0 | 0.0 | 0.00 | 0.00 | 0.00 | 6 | 1241.0 |
| 20260505040131 | 48 | 90 | 0.0 | 0.0 | 0.00 | 0.00 | 0.00 | 6 | 1241.2 |
| 20260505035628 | 48 | 90 | 0.0 | 0.0 | 0.00 | 0.00 | 0.00 | 6 | 1241.0 |
| 20260505035126 | 48 | 90 | 0.0 | 0.0 | 0.00 | 0.00 | 0.00 | 6 | 1241.3 |
| 20260505034117 | 48 | 90 | 0.0 | 0.0 | 0.00 | 0.00 | 0.00 | 6 | 1240.5 |
| 20260505033615 | 49 | 90 | 0.0 | 0.0 | 0.00 | 0.00 | 0.00 | 6 | 1240.7 |
| 20260505033112 | 49 | 90 | 0.0 | 0.0 | 0.00 | 0.00 | 0.00 | 6 | 1241.8 |
| 20260505032609 | 49 | 90 | 0.0 | 0.0 | 0.00 | 0.00 | 0.00 | 6 | 1239.2 |
| 20260505032107 | 48 | 90 | 0.0 | 0.0 | 0.00 | 0.00 | 0.00 | 6 | 1239.7 |
| 20260505031604 | 48 | 90 | 0.0 | 0.0 | 0.00 | 0.00 | 0.00 | 6 | 1239.9 |
| 20260505031101 | 48 | 90 | 0.0 | 0.0 | 0.00 | 0.00 | 0.00 | 6 | 1240.0 |
| 20260505030558 | 48 | 90 | 0.0 | 0.0 | 0.00 | 0.00 | 0.00 | 6 | 1240.7 |
| 20260505030056 | 48 | 90 | 0.0 | 0.0 | 0.00 | 0.00 | 0.00 | 6 | 1242.1 |
| 20260505025553 | 48 | 90 | 0.0 | 0.0 | 0.00 | 0.00 | 0.00 | 6 | 1240.0 |
| 20260505025050 | 49 | 90 | 0.0 | 0.0 | 0.00 | 0.00 | 0.00 | 6 | 1239.8 |
| 20260505024547 | 49 | 90 | 0.0 | 0.0 | 0.00 | 0.00 | 0.00 | 6 | 1239.7 |
| 20260505024045 | 49 | 90 | 0.0 | 0.0 | 0.00 | 0.00 | 0.00 | 6 | 1239.6 |
| 20260505023036 | 50 | 90 | 0.0 | 0.0 | 0.00 | 0.00 | 0.00 | 6 | 1238.9 |
| 20260505022534 | 51 | 90 | 0.0 | 0.0 | 0.00 | 0.00 | 0.00 | 6 | 1238.6 |
| 20260505021525 | 52 | 90 | 0.0 | 0.0 | 0.00 | 0.00 | 0.00 | 5 | 1237.1 |
| 20260505021022 | 52 | 90 | 0.0 | 0.0 | 0.00 | 0.00 | 0.00 | 6 | 1237.9 |
| 20260505020014 | 53 | 90 | 0.0 | 0.0 | 0.00 | 0.00 | 0.00 | 5 | 1234.9 |
| 20260505015512 | 53 | 90 | 0.0 | 0.0 | 0.00 | 0.00 | 0.00 | 5 | 1235.1 |
| 20260505015009 | 53 | 90 | 0.0 | 0.0 | 0.00 | 0.00 | 0.00 | 5 | 1235.4 |
| 20260505014001 | 52 | 90 | 0.0 | 0.0 | 0.00 | 0.00 | 0.00 | 5 | 1235.3 |
| 20260505013458 | 52 | 90 | 0.0 | 0.0 | 0.00 | 0.00 | 0.00 | 5 | 1236.5 |
| 20260505012955 | 52 | 90 | 0.0 | 0.0 | 0.00 | 0.00 | 0.00 | 5 | 1236.2 |
| 20260505012452 | 53 | 90 | 0.0 | 0.0 | 0.00 | 0.00 | 0.00 | 5 | 1236.2 |
| 20260505011950 | 53 | 90 | 0.0 | 0.0 | 0.00 | 0.00 | 0.00 | 5 | 1235.6 |
| 20260505011447 | 52 | 90 | 0.0 | 0.0 | 0.00 | 0.00 | 0.00 | 5 | 1236.0 |
| 20260505010944 | 52 | 90 | 0.0 | 0.0 | 0.00 | 0.00 | 0.00 | 5 | 1236.0 |
| 20260505010440 | 52 | 90 | 0.0 | 0.0 | 0.00 | 0.00 | 0.00 | 5 | 1236.4 |
| 20260505005938 | 52 | 90 | 0.0 | 0.0 | 0.00 | 0.00 | 0.00 | 5 | 1237.2 |
| 20260505005435 | 53 | 90 | 0.0 | 0.0 | 0.00 | 0.00 | 0.00 | 5 | 1236.8 |
| 20260505004932 | 53 | 90 | 0.0 | 0.0 | 0.00 | 0.00 | 0.00 | 5 | 1235.6 |
| 20260505003924 | 54 | 90 | 0.0 | 0.0 | 0.00 | 0.00 | 0.00 | 5 | 1235.1 |
| 20260505003421 | 55 | 90 | 0.0 | 0.0 | 0.00 | 0.00 | 0.00 | 5 | 1234.5 |
| 20260505002918 | 56 | 90 | 0.0 | 0.0 | 0.00 | 0.00 | 0.00 | 5 | 1234.6 |
| 20260505002416 | 56 | 90 | 0.0 | 0.0 | 0.00 | 0.00 | 0.00 | 5 | 1232.4 |
| 20260505001913 | 57 | 90 | 0.0 | 0.0 | 0.00 | 0.00 | 0.00 | 5 | 1231.4 |
| 20260505001410 | 57 | 90 | 0.0 | 0.0 | 0.00 | 0.00 | 0.00 | 5 | 1230.5 |
| 20260505000907 | 58 | 90 | 0.0 | 0.0 | 0.00 | 0.00 | 0.00 | 4 | 1229.1 |
| 20260505000406 | 59 | 90 | 0.0 | 0.0 | 0.00 | 0.00 | 0.00 | 4 | 1229.6 |
| 20260504235902 | 61 | 90 | 0.0 | 0.0 | 0.00 | 0.00 | 0.00 | 4 | 1227.0 |
| 20260504235359 | 61 | 90 | 0.0 | 0.0 | 0.00 | 0.00 | 0.00 | 4 | 1226.3 |
| 20260504234351 | 62 | 90 | 0.0 | 0.0 | 0.00 | 0.00 | 0.00 | 4 | 1226.7 |
| 20260504233848 | 62 | 90 | 0.0 | 0.0 | 0.00 | 0.00 | 0.00 | 4 | 1226.9 |
| 20260504233345 | 62 | 90 | 0.0 | 0.0 | 0.00 | 0.00 | 0.00 | 4 | 1226.9 |
| 20260504232843 | 62 | 90 | 0.0 | 0.0 | 0.00 | 0.00 | 0.00 | 4 | 1226.5 |
| 20260504232340 | 62 | 90 | 0.0 | 0.0 | 0.00 | 0.00 | 0.00 | 4 | 1226.5 |
| 20260504231837 | 62 | 90 | 0.0 | 0.0 | 0.00 | 0.00 | 0.00 | 4 | 1226.1 |
| 20260504231334 | 62 | 90 | 0.0 | 0.0 | 0.00 | 0.00 | 0.00 | 4 | 1225.0 |
| 20260504230832 | 62 | 90 | 0.0 | 0.0 | 0.00 | 0.00 | 0.00 | 4 | 1225.9 |
| 20260504230329 | 62 | 90 | 0.0 | 0.0 | 0.00 | 0.00 | 0.00 | 4 | 1225.8 |
| 20260504225826 | 62 | 90 | 0.0 | 0.0 | 0.00 | 0.00 | 0.00 | 4 | 1225.8 |
| 20260504225323 | 63 | 90 | 0.0 | 0.0 | 0.00 | 0.00 | 0.00 | 4 | 1225.7 |
| 20260504224821 | 63 | 90 | 0.0 | 0.0 | 0.00 | 0.00 | 0.00 | 4 | 1226.4 |
| 20260504224318 | 63 | 90 | 0.0 | 0.0 | 0.00 | 0.00 | 0.00 | 4 | 1225.8 |
| 20260504223815 | 64 | 90 | 0.0 | 0.0 | 0.00 | 0.00 | 0.00 | 4 | 1226.1 |
| 20260504223312 | 65 | 90 | 3.5 | 4.3 | 0.00 | 0.00 | 0.00 | 4 | 1227.3 |
| 20260504222810 | 65 | 90 | 3.5 | 7.8 | 0.00 | 0.00 | 0.00 | 4 | 1227.6 |
| 20260504222307 | 66 | 90 | 3.5 | 7.8 | 0.00 | 0.00 | 0.00 | 4 | 1225.2 |
| 20260504221804 | 66 | 90 | 2.6 | 5.2 | 0.00 | 0.00 | 0.00 | 4 | 1224.7 |
| 20260504221301 | 65 | 90 | 2.6 | 0.0 | 0.00 | 0.00 | 0.00 | 4 | 1224.4 |
| 20260504220758 | 64 | 90 | 2.6 | 0.0 | 0.00 | 0.00 | 0.00 | 4 | 1223.9 |
| 20260504220256 | 64 | 90 | 3.5 | 4.3 | 0.00 | 0.00 | 0.00 | 4 | 1224.1 |
| 20260504215753 | 64 | 90 | 2.6 | 3.5 | 0.00 | 0.00 | 0.00 | 4 | 1224.0 |
| 20260504215250 | 65 | 90 | 2.6 | 2.6 | 0.00 | 0.00 | 0.00 | 4 | 1223.1 |
| 20260504214747 | 65 | 90 | 0.0 | 0.0 | 0.00 | 0.00 | 0.00 | 4 | 1223.0 |
| 20260504214245 | 65 | 90 | 3.5 | 3.5 | 0.00 | 0.00 | 0.00 | 4 | 1223.2 |
| 20260504213742 | 65 | 90 | 2.6 | 2.6 | 0.00 | 0.00 | 0.00 | 4 | 1223.6 |
| 20260504213239 | 65 | 90 | 0.0 | 0.0 | 0.00 | 0.00 | 0.00 | 4 | 1222.7 |
| 20260504212736 | 66 | 90 | 0.0 | 0.0 | 0.00 | 0.00 | 0.00 | 4 | 1222.3 |
| 20260504212234 | 67 | 90 | 0.0 | 0.0 | 0.00 | 0.00 | 0.00 | 3 | 1222.0 |
| 20260504210720 | 67 | 90 | 0.0 | 0.0 | 0.00 | 0.00 | 0.00 | 4 | 1222.7 |
| 20260504210217 | 68 | 90 | 4.3 | 7.0 | 0.00 | 0.00 | 0.00 | 4 | 1223.0 |
| 20260504205715 | 68 | 90 | 3.5 | 7.0 | 0.00 | 0.00 | 0.00 | 4 | 1223.6 |
| 20260504205212 | 68 | 90 | 3.5 | 8.7 | 0.00 | 0.00 | 0.00 | 4 | 1223.8 |
| 20260504204709 | 68 | 90 | 7.0 | 13.0 | 0.00 | 0.00 | 0.00 | 4 | 1224.1 |
| 20260504204206 | 68 | 90 | 3.5 | 7.8 | 0.00 | 0.00 | 0.00 | 4 | 1223.7 |